Location: Beuerbach
(48.1459°N, 10.9174°E)
Time: 01:57:31
(UTC+00:00)

Cosmos 1346 Rocket - Visible Passes

Search period start: 19 November 2025 00:00
Search period end: 29 November 2025 00:00
Orbit: 480 x 492 km, 81.2° (Epoch: 18 November)

Date Brightness Start Highest point End Pass type
(mag) Time Alt. Az. Time Alt. Az. Time Alt. Az.
19 Nov 3.5 17:13:17 10° N 17:15:46 30° NE 17:15:46 30° NE visible
19 Nov 5.6 18:49:10 10° NW 18:50:16 15° WNW 18:50:16 15° WNW visible
20 Nov 3.6 16:49:13 10° NNE 16:52:20 24° ENE 16:54:07 17° ESE visible
20 Nov 4.7 18:24:24 10° NW 18:27:33 26° W 18:28:49 21° SW visible
21 Nov 4.1 16:25:19 10° NNE 16:27:52 17° ENE 16:30:24 10° ESE visible
21 Nov 4.0 17:59:49 10° NNW 18:03:17 39° W 18:06:45 10° SSW visible
22 Nov 3.1 17:35:20 10° NNW 17:38:59 61° W 17:42:38 10° S visible
23 Nov 5.2 05:49:06 10° SSE 05:52:08 25° E 05:55:11 10° NE visible
23 Nov 2.5 17:10:55 10° N 17:14:39 86° ENE 17:18:21 10° SSE visible
24 Nov 5.7 05:25:27 10° SE 05:27:53 17° E 05:30:21 10° NE visible
24 Nov 2.6 16:46:35 10° N 16:50:15 55° ENE 16:53:53 10° SSE visible
24 Nov 6.0 18:23:33 10° WNW 18:24:59 12° W 18:26:26 10° WSW visible
25 Nov 6.1 05:02:24 10° ESE 05:03:40 12° E 05:04:58 10° ENE visible
25 Nov 3.1 16:22:20 10° N 16:25:48 36° ENE 16:29:14 10° SE visible
25 Nov 5.6 17:58:15 10° NW 18:00:47 18° W 18:03:16 10° SW visible
26 Nov 3.6 15:58:11 10° NNE 16:01:18 25° ENE 16:04:23 10° SE visible
26 Nov 4.9 17:33:23 10° NW 17:36:29 26° W 17:39:34 10° SSW visible
27 Nov 3.3 05:45:58 10° S 05:49:35 58° E 05:53:14 10° NNE visible
27 Nov 4.1 17:08:42 10° NNW 17:12:10 38° W 17:15:36 10° SSW visible
28 Nov 4.3 05:21:48 10° SSE 05:25:13 37° E 05:28:40 10° NNE visible
28 Nov 3.2 16:44:07 10° NNW 16:47:47 60° W 16:51:25 10° S visible
